Sella Ness, United Kingdom

2:54 PM GMT on December 03, 2016 (GMT +0000)
Scatsta

Weather History for EGPM - December, 2012

Change the Weather History Date:

Monday, December 3, 2012

  Actual Average Record
Temperature  
Mean Temperature 34 °F -  
Max Temperature 37 °F 45 °F 51 °F (2014)
Min Temperature 33 °F 39 °F 30 °F (2008)
Degree Days  
Heating Degree Days 31    
Moisture  
Dew Point 24 °F    
Average Humidity 63    
Maximum Humidity 70    
Minimum Humidity 56    
Precipitation  
Precipitation 0.00 in - - ()
Sea Level Pressure  
Sea Level Pressure 29.65 in    
Wind  
Wind Speed 15 mph ()    
Max Wind Speed 23 mph    
Max Gust Speed -    
Visibility 6.2 miles    
Events Rain , Snow    
Averages and records for this station are not official NWS values.
T = Trace of Precipitation, MM = Missing Value Source: Averaged Metar Reports

Daily Weather History Graph

Daily Weather History Graph

Search for Another Location

Airport or City:

Trip Planner

Search our weather history database for the weather conditions in past years. The results will help you decide how hot, cold, wet, or windy it might be!

Date:

Astronomy

Dec. 03, 2012 Rise Set
Actual Time 8:48 AM GMT 3:01 PM GMT
Civil Twilight 7:52 AM GMT 3:57 PM GMT
Nautical Twilight 6:56 AM GMT 4:53 PM GMT
Astronomical Twilight 6:04 AM GMT 5:45 PM GMT
Moon 8:18 PM GMT 11:23 AM GMT
Length of Visible Light 8h 05m
Length of Day
6h 12m
Waning Gibbous, 80% of the Moon is Illuminated
Dec 3
Waning Gibbous
Dec 6
Last Quarter
Dec 13
New
Dec 20
First Quarter
Dec 28
Full

Hourly Weather History & Observations

Time (GMT) Temp. Windchill Dew Point Humidity Pressure Visibility Wind Dir Wind Speed Gust Speed Precip Events Conditions
12:20 AM 35.6 °F 26.2 °F 23.0 °F 60% 29.86 in 6.2 mi East 15.0 mph - N/A   Overcast
12:50 AM 35.6 °F 27.1 °F 23.0 °F 60% 29.83 in 6.2 mi ESE 12.7 mph - N/A   Mostly Cloudy
1:20 AM 35.6 °F 26.6 °F 23.0 °F 60% 29.83 in 6.2 mi East 13.8 mph - N/A   Overcast
1:50 AM 35.6 °F 26.6 °F 23.0 °F 60% 29.83 in 6.2 mi East 13.8 mph - N/A   Mostly Cloudy
2:20 AM 35.6 °F 26.2 °F 23.0 °F 60% 29.80 in 6.2 mi East 15.0 mph - N/A   Overcast
2:50 AM 35.6 °F 27.5 °F 24.8 °F 65% 29.80 in 6.2 mi East 11.5 mph - N/A   Overcast
3:20 AM 35.6 °F 26.2 °F 26.6 °F 70% 29.80 in 6.2 mi East 15.0 mph - N/A Rain Rain
3:50 AM 35.6 °F 25.9 °F 26.6 °F 70% 29.77 in 6.2 mi East 16.1 mph - N/A Snow Light Snow
4:20 AM 35.6 °F 26.6 °F 24.8 °F 65% 29.77 in 6.2 mi East 13.8 mph - N/A   Drizzle
4:50 AM 35.6 °F 25.5 °F 24.8 °F 65% 29.74 in 6.2 mi East 17.3 mph - N/A   Mostly Cloudy
5:20 AM 35.6 °F 25.9 °F 23.0 °F 60% 29.74 in 6.2 mi East 16.1 mph - N/A   Mostly Cloudy
5:50 AM 35.6 °F 27.1 °F 24.8 °F 65% 29.71 in 6.2 mi East 12.7 mph - N/A Rain Rain
6:20 AM 35.6 °F 26.2 °F 24.8 °F 65% 29.71 in 6.2 mi East 15.0 mph - N/A   Mostly Cloudy
6:50 AM 35.6 °F 25.9 °F 23.0 °F 60% 29.71 in 6.2 mi East 16.1 mph - N/A   Mostly Cloudy
7:20 AM 35.6 °F 25.5 °F 21.2 °F 56% 29.68 in 6.2 mi East 17.3 mph - N/A   Mostly Cloudy
7:50 AM 35.6 °F 25.5 °F 23.0 °F 60% 29.68 in 6.2 mi East 17.3 mph - N/A   Mostly Cloudy
8:20 AM 35.6 °F 25.9 °F 21.2 °F 56% 29.68 in 6.2 mi East 16.1 mph - N/A   Mostly Cloudy
8:50 AM 35.6 °F 25.2 °F 21.2 °F 56% 29.68 in 6.2 mi East 18.4 mph - N/A   Mostly Cloudy
9:20 AM 35.6 °F 25.9 °F 23.0 °F 60% 29.68 in 6.2 mi East 16.1 mph - N/A   Mostly Cloudy
9:50 AM 35.6 °F 25.9 °F 23.0 °F 60% 29.68 in 6.2 mi ESE 16.1 mph - N/A   Mostly Cloudy
10:20 AM 35.6 °F 25.9 °F 23.0 °F 60% 29.65 in 6.2 mi East 16.1 mph - N/A   Mostly Cloudy
10:50 AM 35.6 °F 25.9 °F 23.0 °F 60% 29.65 in 6.2 mi East 16.1 mph - N/A   Mostly Cloudy
11:20 AM 35.6 °F 25.2 °F 21.2 °F 56% 29.65 in 6.2 mi East 18.4 mph - N/A   Scattered Clouds
11:50 AM 35.6 °F 25.9 °F 21.2 °F 56% 29.62 in 6.2 mi East 16.1 mph - N/A   Scattered Clouds
12:20 PM 33.8 °F 23.2 °F 21.2 °F 60% 29.62 in 6.2 mi East 17.3 mph - N/A   Scattered Clouds
12:50 PM 35.6 °F 25.5 °F 23.0 °F 60% 29.62 in 6.2 mi East 17.3 mph - N/A   Scattered Clouds
1:20 PM 33.8 °F 23.5 °F 23.0 °F 65% 29.62 in 6.2 mi East 16.1 mph - N/A   Scattered Clouds
1:50 PM 33.8 °F 22.8 °F 21.2 °F 60% 29.62 in 6.2 mi East 18.4 mph - N/A   Scattered Clouds
2:20 PM 33.8 °F 23.2 °F 23.0 °F 65% 29.59 in 6.2 mi East 17.3 mph - N/A   Partly Cloudy
2:50 PM 33.8 °F 23.2 °F 23.0 °F 65% 29.59 in 6.2 mi East 17.3 mph - N/A   Scattered Clouds
3:20 PM 33.8 °F 22.8 °F 21.2 °F 60% 29.59 in 6.2 mi East 18.4 mph - N/A   Scattered Clouds
3:50 PM 33.8 °F 23.5 °F 23.0 °F 65% 29.59 in 6.2 mi East 16.1 mph - N/A   Scattered Clouds
4:20 PM 33.8 °F 23.2 °F 23.0 °F 65% 29.59 in 6.2 mi East 17.3 mph - N/A   Scattered Clouds
4:50 PM 33.8 °F 23.9 °F 23.0 °F 65% 29.56 in 6.2 mi East 15.0 mph - N/A   Scattered Clouds
5:20 PM 35.6 °F 25.5 °F 24.8 °F 65% 29.56 in 6.2 mi ENE 17.3 mph - N/A   Scattered Clouds
5:50 PM 35.6 °F 25.5 °F 26.6 °F 70% 29.56 in 6.2 mi ENE 17.3 mph - N/A   Scattered Clouds
6:20 PM 35.6 °F 24.5 °F 26.6 °F 70% 29.56 in 6.2 mi ENE 20.7 mph - N/A   Scattered Clouds
6:50 PM 35.6 °F 25.5 °F 26.6 °F 70% 29.56 in 6.2 mi ENE 17.3 mph - N/A Snow Light Snow
7:20 PM 35.6 °F 24.5 °F 26.6 °F 70% 29.56 in 6.2 mi ENE 20.7 mph - N/A Rain Rain
7:50 PM 35.6 °F 24.0 °F 26.6 °F 70% 29.56 in 6.2 mi ENE 23.0 mph - N/A   Scattered Clouds
8:20 PM 35.6 °F 24.5 °F 24.8 °F 65% 29.56 in 6.2 mi ENE 20.7 mph - N/A   Scattered Clouds
8:50 PM 35.6 °F 25.2 °F 24.8 °F 65% 29.56 in 6.2 mi ENE 18.4 mph - N/A   Partly Cloudy
9:20 PM 35.6 °F 24.8 °F 26.6 °F 70% 29.56 in 6.2 mi NE 19.6 mph - N/A   Partly Cloudy
9:50 PM 35.6 °F 24.2 °F 26.6 °F 70% 29.56 in 6.2 mi NE 21.9 mph - N/A   Scattered Clouds
10:20 PM 35.6 °F 24.2 °F 26.6 °F 70% 29.56 in 6.2 mi ENE 21.9 mph - N/A   Mostly Cloudy
10:50 PM 35.6 °F 24.2 °F 23.0 °F 60% 29.59 in 6.2 mi ENE 21.9 mph - N/A   Mostly Cloudy
11:20 PM 35.6 °F 25.5 °F 26.6 °F 70% 29.59 in 6.2 mi East 17.3 mph - N/A   Mostly Cloudy
11:50 PM 37.4 °F 27.2 °F 24.8 °F 60% 29.56 in 6.2 mi ENE 19.6 mph - N/A   Scattered Clouds